QPF
0.00 0.00 0.00 0.00 0.00 0.00 0.00 0.00 0.00 0.00 0.00 0.00 0.00 0.00 0.00 0.00 0.00 0.00 0.00 0.00 0.00 0.00 0.00 0.00 0.00 0.00 0.00 0.00 0.00 0.00 0.00 0.00 0.00 0.00 0.00 0.00 0.00 0.00 0.00 0.00 0.00 0.00 0.00 0.00
0.00 0.00 0.00 0.00 0.00 0.00 0.00 0.00 0.00 0.00 0.00 0.00 0.00 0.00 0.00 0.00 0.00 0.00 0.00 0.00 0.00 0.00 0.00 0.00 0.00 0.00 0.00 0.00 0.00 0.00 0.00 0.00 0.00 0.00 0.00 0.00 0.00 0.00 0.00 0.00 0.00 0.00 0.00 0.00
0.00 0.00 0.00 0.00 0.00 0.00 0.00 0.00 0.00 0.00 0.00 0.00 0.00 0.00 0.00 0.00 0.00 0.00 0.00 0.00 0.00 0.00 0.00 0.00 0.00 0.00 0.00 0.00 0.00 0.00 0.00 0.00 0.00 0.00 0.00 0.00 0.00 0.00 0.00 0.00 0.00 0.00 0.00 0.00
0.00 0.00 0.00 0.00 0.00 0.00 0.00 0.00 0.00 0.00 0.00 0.00 0.00 0.00 0.00 0.00 0.00 0.00 0.00 0.00 0.01 0.00 0.00 0.00 0.00 0.00 0.00 0.00 0.00 0.00 0.00 0.00 0.00 0.00 0.00 0.00 0.00 0.00 0.00 0.00 0.00 0.00 0.00 0.00
0.00 0.00 0.00 0.00 0.00 0.00 0.00 0.00 0.00 0.00 0.00 0.00 0.00 0.00 0.00 0.00 0.00 0.00 0.00 0.00 0.00 0.00 0.00 0.00 0.00 0.00 0.00 0.00 0.00 0.00 0.00 0.00 0.00 0.00 0.00 0.00 0.00 0.00 0.00 0.00 0.00 0.00 0.00 0.00
0.00 0.00 0.00 0.00 0.00 0.00 0.00 0.00 0.00 0.00 0.00 0.00 0.00 0.00 0.00 0.00 0.00 0.00 0.00 0.00 0.00 0.00 0.00 0.01 0.01 0.00 0.00 0.00 0.00 0.00 0.00 0.00 0.00 0.00 0.00 0.00 0.00 0.00 0.00 0.00 0.00 0.00 0.00 0.00
0.00 0.00 0.00 0.00 0.00 0.00 0.00 0.00 0.00 0.00 0.00 0.00 0.00 0.00 0.00 0.00 0.00 0.00 0.00 0.00 0.00 0.00 0.00 0.00 0.00 0.00 0.00 0.00 0.00 0.00 0.00 0.00 0.00 0.00 0.00 0.00 0.00 0.00 0.00 0.00 0.00 0.00 0.00 0.00
0.00 0.00 0.00 0.00 0.00 0.00 0.00 0.00 0.00 0.00 0.00 0.00 0.00 0.00 0.00 0.00 0.00 0.00 0.00 0.00 0.00 0.00 0.00 0.00 0.00 0.01 0.00 0.00 0.00 0.00 0.00 0.00 0.00 0.00 0.00 0.00 0.00 0.00 0.00 0.00 0.00 0.00 0.00 0.00
0.00 0.00 0.00 0.00 0.00 0.00 0.00 0.00 0.00 0.00 0.00 0.00 0.00 0.00 0.00 0.00 0.00 0.00 0.00 0.00 0.00 0.00 0.00 0.00 0.00 0.00 0.00 0.00 0.00 0.00 0.00 0.00 0.00 0.00 0.00 0.00 0.00 0.00 0.00 0.00 0.00 0.00 0.00 0.00
0.00 0.00 0.00 0.00 0.00 0.00 0.00 0.00 0.00 0.00 0.00 0.00 0.00 0.00 0.00 0.00 0.00 0.00 0.00 0.00 0.00 0.00 0.00 0.00 0.00 0.00 0.00 0.00 0.00 0.00 0.00 0.00 0.00 0.00 0.00 0.00 0.00 0.00 0.00 0.00 0.00 0.00 0.00 0.00
0.00 0.00 0.00 0.00 0.00 0.00 0.00 0.00 0.00 0.00 0.00 0.00 0.00 0.00 0.00 0.00 0.00 0.00 0.00 0.00 0.00 0.00 0.00 0.00 0.00 0.00 0.00 0.00 0.00 0.00 0.00 0.00 0.00 0.00 0.00 0.00 0.00 0.00 0.00 0.00 0.00 0.00 0.00 0.00
0.00 0.00 0.00 0.00 0.00 0.00 0.00 0.00 0.00 0.00 0.00 0.00 0.00 0.00 0.00 0.00 0.00 0.00 0.00 0.00 0.00 0.00 0.00 0.00 0.00 0.00 0.00 0.00 0.00 0.00 0.00 0.00 0.00 0.00 0.00 0.00 0.00 0.00 0.00 0.00 0.00 0.00 0.00 0.00
0.00 0.00 0.00 0.00 0.00 0.00 0.00 0.00 0.00 0.00 0.00 0.00 0.00 0.00 0.00 0.00 0.00 0.00 0.00 0.00 0.00 0.00 0.00 0.00 0.00 0.00 0.00 0.00 0.00 0.00 0.00 0.00 0.00 0.00 0.00 0.00 0.00 0.00 0.00 0.00 0.00 0.00 0.00 0.00
0.00 0.00 0.00 0.00 0.00 0.00 0.00 0.00 0.00 0.00 0.00 0.00 0.00 0.00 0.00 0.00 0.00 0.00 0.00 0.00 0.00 0.00 0.00 0.00 0.00 0.00 0.00 0.00 0.00 0.00 0.00 0.00 0.00 0.00 0.00 0.00 0.00 0.00 0.00 0.00 0.00 0.00 0.00 0.00
0.00 0.00 0.00 0.00 0.00 0.00 0.00 0.00 0.00 0.00 0.00 0.00 0.00 0.00 0.00 0.00 0.00 0.00 0.00 0.00 0.00 0.00 0.00 0.00 0.00 0.00 0.00 0.00 0.00 0.00 0.00 0.00 0.00 0.00 0.00 0.00 0.00 0.00 0.00 0.00 0.00 0.00 0.00 0.00
0.00 0.00 0.00 0.00 0.00 0.00 0.00 0.00 0.00 0.00 0.00 0.00 0.00 0.00 0.00 0.00 0.00 0.00 0.00 0.00 0.00 0.00 0.00 0.00 0.00 0.00 0.00 0.00 0.00 0.00 0.00 0.00 0.00 0.00 0.00 0.00 0.00 0.00 0.00 0.00 0.00 0.00 0.00 0.00
0.00 0.00 0.00 0.00 0.00 0.00 0.00 0.00 0.00 0.00 0.00 0.01 0.00 0.00 0.00 0.00 0.00 0.00 0.00 0.00 0.00 0.00 0.00 0.00 0.00 0.00 0.00 0.00 0.00 0.00 0.00 0.00 0.00 0.00 0.00 0.00 0.00 0.00 0.00 0.00 0.00 0.00 0.03 0.01
0.00 0.00 0.00 0.00 0.00 0.00 0.00 0.00 0.01 0.01 0.02 0.02 0.00 0.00 0.00 0.00 0.00 0.00 0.00 0.00 0.00 0.00 0.00 0.00 0.00 0.00 0.00 0.00 0.00 0.00 0.00 0.00 0.00 0.00 0.00 0.00 0.00 0.01 0.01 0.00 0.00 0.02 0.05 0.05
0.00 0.00 0.00 0.00 0.00 0.00 0.00 0.00 0.00 0.00 0.00 0.00 0.00 0.01 0.00 0.00 0.00 0.00 0.00 0.00 0.00 0.00 0.00 0.00 0.00 0.00 0.00 0.00 0.00 0.00 0.00 0.00 0.00 0.00 0.00 0.00 0.00 0.01 0.03 0.01 0.00 0.03 0.05 0.02
0.00 0.00 0.00 0.00 0.00 0.00 0.00 0.00 0.00 0.00 0.00 0.00 0.00 0.01 0.00 0.00 0.01 0.01 0.03 0.01 0.00 0.00 0.01 0.01 0.01 0.00 0.00 0.00 0.00 0.00 0.00 0.00 0.00 0.00 0.00 0.02 0.05 0.07 0.06 0.08 0.08 0.07 0.06 0.03
0.00 0.00 0.00 0.00 0.00 0.00 0.00 0.00 0.00 0.01 0.00 0.01 0.01 0.02 0.03 0.02 0.03 0.05 0.07 0.06 0.04 0.04 0.09 0.06 0.04 0.02 0.00 0.00 0.00 0.00 0.00 0.00 0.00 0.00 0.00 0.03 0.10 0.13 0.12 0.12 0.10 0.07 0.02 0.00
0.00 0.00 0.00 0.00 0.00 0.01 0.00 0.00 0.00 0.00 0.00 0.00 0.00 0.03 0.05 0.03 0.04 0.06 0.08 0.04 0.01 0.01 0.01 0.00 0.01 0.00 0.00 0.00 0.00 0.00 0.00 0.00 0.00 0.00 0.01 0.02 0.04 0.04 0.04 0.03 0.02 0.01 0.00 0.00
0.00 0.00 0.00 0.00 0.00 0.00 0.00 0.00 0.00 0.00 0.00 0.00 0.00 0.00 0.01 0.02 0.02 0.01 0.02 0.01 0.00 0.00 0.00 0.00 0.00 0.00 0.01 0.05 0.06 0.03 0.00 0.01 0.00 0.00 0.02 0.01 0.00 0.00 0.00 0.00 0.00 0.00 0.00 0.00
0.00 0.00 0.00 0.00 0.00 0.00 0.00 0.00 0.00 0.00 0.00 0.00 0.00 0.00 0.00 0.00 0.01 0.00 0.00 0.00 0.01 0.00 0.00 0.00 0.00 0.00 0.01 0.05 0.06 0.14 0.14 0.12 0.05 0.02 0.01 0.00 0.00 0.00 0.00 0.00 0.00 0.00 0.00 0.00
0.00 0.00 0.00 0.00 0.00 0.00 0.00 0.00 0.00 0.00 0.00 0.00 0.00 0.00 0.00 0.00 0.00 0.00 0.00 0.00 0.00 0.03 0.12 0.04 0.01 0.09 0.05 0.13 0.19 0.27 0.19 0.10 0.01 0.00 0.00 0.00 0.00 0.00 0.00 0.00 0.00 0.00 0.00 0.00
0.00 0.00 0.00 0.00 0.00 0.00 0.00 0.00 0.00 0.00 0.00 0.00 0.00 0.00 0.00 0.00 0.00 0.00 0.00 0.00 0.00 0.02 0.23 0.34 0.10 0.09 0.10 0.25 0.36 0.34 0.28 0.08 0.01 0.00 0.00 0.00 0.00 0.00 0.00 0.00 0.00 0.00 0.00 0.00
MSLP
1008.85 1009.71 1009.89 1009.48 1009.63 1009.34 1009.30 1009.12 1008.29 1007.00 1006.44 1007.07 1007.38 1007.94 1008.04 1008.01 1008.61 1008.70 1008.88 1008.92 1009.35 1009.20 1009.39 1009.94 1010.53 1011.27 1012.24 1012.92 1013.56 1014.10 1014.59 1015.07 1015.46 1016.12 1016.63 1017.01 1017.08 1017.34 1017.68 1018.00 1017.94 1017.86 1017.79 1017.84
1009.68 1009.60 1008.78 1008.74 1008.70 1008.85 1008.57 1008.32 1007.32 1006.10 1005.73 1006.70 1007.14 1007.76 1007.74 1008.07 1007.95 1008.21 1007.81 1007.92 1007.61 1008.83 1008.99 1009.54 1010.30 1010.98 1011.56 1012.26 1013.03 1013.96 1014.40 1014.97 1015.25 1015.63 1016.02 1016.48 1016.72 1017.18 1017.22 1017.32 1017.46 1017.60 1017.49 1017.48
1009.36 1008.16 1007.88 1008.35 1007.95 1008.00 1007.55 1007.31 1006.50 1006.37 1005.65 1006.26 1007.03 1008.00 1008.28 1008.08 1008.29 1008.13 1007.64 1007.21 1007.39 1006.99 1008.15 1008.84 1009.53 1010.25 1010.98 1011.88 1012.54 1013.30 1014.00 1014.56 1014.99 1015.36 1015.90 1016.26 1016.65 1017.05 1017.39 1017.47 1017.56 1017.28 1017.34 1017.41
1008.81 1007.38 1007.70 1007.40 1007.43 1007.08 1007.11 1006.00 1005.97 1006.14 1006.72 1007.09 1007.11 1008.28 1008.44 1007.75 1007.49 1007.51 1007.26 1007.27 1006.90 1007.17 1007.24 1008.05 1008.79 1009.58 1010.18 1011.05 1012.02 1012.80 1013.53 1014.18 1014.72 1015.09 1015.63 1015.99 1016.37 1016.84 1017.10 1017.13 1017.23 1017.29 1017.21 1017.29
1007.45 1007.15 1006.92 1006.62 1006.10 1005.78 1005.71 1005.27 1005.81 1006.19 1007.04 1007.67 1007.83 1008.59 1007.32 1007.24 1007.27 1006.58 1006.19 1006.34 1006.16 1006.07 1006.76 1007.29 1007.81 1008.42 1009.40 1010.58 1011.49 1012.31 1013.08 1013.78 1014.30 1014.78 1015.12 1015.66 1016.17 1016.47 1016.60 1016.93 1017.15 1017.31 1017.16 1017.07
1006.79 1006.17 1006.08 1005.43 1004.89 1004.97 1005.00 1005.45 1006.41 1007.32 1008.22 1008.75 1007.97 1008.49 1006.83 1006.95 1005.24 1004.92 1004.78 1005.26 1005.01 1005.31 1005.86 1006.53 1006.89 1008.00 1009.05 1010.13 1011.12 1011.93 1012.72 1013.35 1013.87 1014.42 1014.80 1015.20 1015.65 1016.17 1016.64 1016.78 1017.01 1017.10 1017.05 1017.01
1006.32 1005.66 1004.71 1004.59 1004.81 1004.47 1005.13 1006.80 1007.97 1009.26 1009.84 1009.42 1007.76 1008.02 1005.62 1004.13 1003.42 1003.32 1003.24 1003.54 1003.80 1004.11 1005.20 1005.84 1006.84 1007.47 1008.48 1009.38 1010.45 1011.38 1012.20 1012.87 1013.40 1013.89 1014.31 1014.67 1015.09 1015.50 1015.89 1016.13 1016.35 1016.71 1016.86 1016.82
1007.10 1005.37 1004.02 1003.68 1003.86 1004.08 1005.20 1006.69 1008.43 1009.68 1010.38 1009.48 1008.04 1006.74 1003.93 1002.09 1001.24 1001.67 1001.97 1001.97 1002.86 1003.68 1004.18 1004.81 1005.75 1006.64 1007.60 1008.70 1009.71 1010.59 1011.63 1012.33 1012.84 1013.37 1013.67 1014.02 1014.40 1014.87 1015.14 1015.40 1015.70 1015.96 1016.11 1016.08
1006.46 1005.26 1003.15 1002.99 1002.79 1003.40 1004.61 1006.09 1006.52 1008.75 1009.71 1009.61 1007.88 1005.81 1003.38 1001.45 1000.99 1001.41 1001.47 1001.82 1002.29 1002.78 1003.26 1003.92 1004.91 1005.87 1006.90 1007.98 1008.89 1009.66 1010.75 1011.55 1012.12 1012.59 1013.16 1013.49 1013.76 1014.19 1014.50 1014.77 1015.02 1015.36 1015.51 1015.62
1005.28 1005.24 1003.48 1002.81 1002.65 1003.05 1003.66 1004.49 1006.56 1008.47 1009.52 1009.65 1008.08 1006.40 1004.13 1002.28 1001.37 1001.06 1001.18 1001.36 1001.79 1002.32 1002.92 1003.61 1004.42 1005.21 1006.19 1007.05 1008.11 1009.12 1009.91 1010.43 1011.12 1011.92 1012.55 1012.88 1013.18 1013.53 1013.88 1014.18 1014.55 1014.95 1015.00 1015.24
1004.57 1005.15 1003.88 1003.91 1003.38 1003.22 1003.86 1004.54 1005.84 1007.28 1008.41 1008.76 1008.12 1006.66 1003.75 1002.72 1001.66 1001.00 1000.83 1000.78 1000.89 1001.38 1002.06 1002.87 1003.58 1004.31 1005.33 1006.59 1007.56 1008.32 1009.34 1010.10 1010.84 1011.38 1011.91 1012.46 1012.88 1013.22 1013.49 1013.70 1013.97 1014.23 1014.59 1014.94
1005.66 1005.39 1005.44 1004.50 1003.18 1002.89 1003.35 1004.59 1005.59 1007.49 1008.29 1008.50 1007.80 1005.51 1003.81 1002.89 1001.97 1001.80 1000.54 1000.47 1000.64 1000.99 1001.36 1002.14 1002.98 1003.95 1005.02 1006.01 1007.01 1007.69 1008.64 1009.36 1009.90 1010.50 1011.22 1011.58 1012.25 1012.82 1013.20 1013.32 1013.47 1013.74 1014.11 1014.47
1006.84 1006.57 1006.61 1005.53 1004.27 1003.65 1004.21 1004.51 1004.97 1006.05 1007.15 1007.67 1007.80 1005.61 1003.69 1002.98 1002.34 1001.96 1002.06 1000.73 1000.48 1000.91 1001.44 1002.22 1002.99 1003.60 1004.30 1005.37 1006.34 1007.24 1008.00 1008.40 1009.15 1009.96 1010.64 1011.17 1011.53 1012.06 1012.38 1012.73 1013.06 1013.32 1013.54 1013.89
1007.28 1008.06 1008.13 1007.96 1006.69 1005.82 1005.09 1004.84 1004.82 1005.57 1006.72 1006.84 1006.15 1005.03 1003.98 1003.22 1003.15 1002.53 1002.10 1001.81 1001.85 1001.90 1002.08 1001.99 1002.48 1003.04 1003.73 1004.53 1005.48 1006.47 1007.38 1008.10 1008.73 1009.35 1009.97 1010.48 1010.67 1011.13 1011.60 1011.95 1012.55 1012.89 1013.02 1013.26
1009.32 1009.57 1008.98 1008.48 1007.70 1006.65 1006.00 1005.42 1005.03 1005.21 1005.36 1005.79 1005.00 1004.73 1003.85 1002.94 1002.74 1002.41 1002.60 1002.57 1002.55 1001.89 1002.02 1002.35 1002.75 1003.04 1003.45 1004.37 1005.17 1005.98 1006.95 1007.65 1008.24 1008.86 1009.46 1009.67 1010.04 1010.45 1011.05 1011.49 1011.78 1012.28 1012.64 1012.76
1010.32 1010.21 1009.90 1009.11 1007.91 1007.09 1006.30 1005.46 1005.05 1004.97 1005.17 1005.11 1004.69 1004.53 1004.20 1003.25 1002.57 1002.28 1002.15 1002.54 1002.79 1003.38 1002.10 1002.07 1002.50 1002.83 1003.30 1003.67 1004.50 1005.28 1006.17 1007.01 1007.74 1008.34 1008.70 1009.16 1009.61 1010.06 1010.54 1011.10 1011.41 1011.70 1012.06 1012.34
1011.12 1010.85 1010.92 1009.96 1008.70 1007.68 1006.61 1005.57 1005.32 1005.22 1005.38 1005.31 1005.10 1004.51 1003.72 1003.46 1003.28 1002.99 1002.65 1002.47 1002.59 1002.50 1003.17 1002.14 1001.96 1001.81 1002.31 1002.80 1003.48 1004.57 1005.47 1006.39 1007.17 1007.80 1008.35 1008.86 1009.26 1009.81 1010.19 1010.64 1011.11 1011.48 1011.61 1011.83
1010.89 1011.26 1011.46 1011.03 1009.76 1008.65 1006.69 1005.66 1005.42 1005.30 1005.70 1005.57 1005.18 1004.87 1004.60 1003.98 1003.40 1003.33 1003.32 1002.93 1002.10 1002.31 1002.59 1002.74 1002.44 1002.44 1002.66 1002.93 1003.49 1004.27 1004.97 1005.86 1006.59 1007.24 1007.87 1008.48 1008.96 1009.46 1010.01 1010.39 1010.58 1010.81 1010.89 1011.18
1010.44 1010.81 1011.36 1011.24 1010.45 1008.79 1007.54 1006.93 1006.52 1006.02 1006.73 1006.40 1005.78 1005.38 1004.84 1004.36 1003.93 1003.75 1003.97 1003.75 1002.90 1002.85 1002.54 1002.54 1003.69 1002.53 1002.60 1003.05 1003.67 1004.16 1004.65 1005.28 1006.00 1006.58 1006.98 1007.57 1008.36 1009.13 1009.65 1010.20 1010.31 1010.41 1010.64 1010.68
1010.76 1010.72 1011.35 1011.39 1010.76 1009.84 1009.14 1007.71 1006.61 1006.11 1007.38 1007.31 1007.03 1007.29 1006.88 1005.59 1005.63 1005.67 1004.56 1004.26 1003.50 1003.26 1003.50 1004.24 1005.00 1004.55 1002.55 1002.34 1002.88 1003.76 1004.31 1004.84 1005.47 1005.98 1006.53 1007.21 1007.76 1008.28 1009.02 1009.30 1009.78 1010.18 1010.14 1010.56
1012.19 1011.97 1012.19 1011.86 1011.24 1010.16 1009.03 1007.90 1006.94 1007.25 1008.89 1008.16 1007.98 1008.06 1008.29 1008.01 1007.84 1007.10 1005.76 1004.40 1003.43 1003.40 1003.17 1004.06 1005.08 1005.70 1004.28 1003.08 1002.48 1002.98 1003.71 1003.63 1004.49 1005.67 1006.20 1006.83 1007.19 1007.85 1008.30 1008.90 1009.57 1009.94 1010.19 1010.41
1013.85 1013.60 1013.31 1012.72 1011.99 1010.98 1009.89 1008.98 1009.67 1009.99 1009.08 1008.82 1008.56 1008.41 1008.29 1008.17 1007.87 1007.77 1006.98 1005.61 1004.49 1004.35 1004.29 1004.66 1004.72 1004.98 1004.49 1004.02 1003.88 1003.11 1003.09 1003.27 1003.82 1005.36 1005.88 1006.56 1007.37 1007.74 1008.45 1009.07 1009.59 1010.01 1010.42 1010.91
1014.46 1014.21 1014.16 1013.64 1012.68 1011.83 1011.21 1011.02 1010.69 1010.17 1009.94 1009.46 1008.88 1008.51 1008.49 1008.29 1007.66 1007.53 1007.07 1006.70 1005.64 1004.88 1004.42 1004.48 1004.76 1004.58 1004.33 1004.14 1004.12 1003.90 1003.56 1003.39 1004.10 1005.11 1006.04 1006.66 1006.99 1007.84 1008.58 1008.91 1009.48 1010.22 1010.81 1011.20
1014.76 1014.34 1014.44 1013.96 1012.44 1011.91 1011.44 1010.78 1010.47 1010.37 1010.17 1009.64 1009.06 1008.53 1008.49 1008.31 1007.88 1007.30 1006.91 1005.86 1005.37 1005.16 1005.00 1004.71 1004.59 1004.75 1004.44 1004.16 1004.32 1003.99 1003.28 1003.58 1003.94 1004.82 1005.73 1006.61 1006.79 1007.63 1008.33 1008.81 1009.76 1010.29 1010.80 1011.18
1014.86 1014.43 1013.74 1013.23 1012.50 1011.80 1011.07 1010.91 1010.65 1010.05 1009.81 1009.42 1008.94 1008.63 1008.30 1007.85 1007.39 1006.95 1006.50 1006.05 1005.52 1004.96 1004.35 1004.01 1004.31 1004.28 1003.95 1004.07 1004.42 1004.00 1003.49 1003.42 1003.83 1004.33 1005.38 1006.39 1007.11 1007.97 1008.85 1009.71 1010.59 1010.78 1010.81 1010.83
1013.97 1014.01 1014.07 1013.52 1013.15 1012.89 1011.77 1010.94 1010.55 1010.23 1009.50 1009.12 1008.94 1008.35 1007.95 1007.69 1006.93 1006.58 1006.01 1005.43 1005.35 1005.06 1004.42 1003.99 1003.69 1002.83 1002.10 1003.38 1004.70 1004.39 1003.78 1003.54 1003.34 1004.35 1005.52 1006.24 1007.05 1008.49 1009.38 1010.17 1010.94 1011.18 1011.44 1011.44
Thickness
5793 5770 5754 5770 5774 5781 5775 5769 5771 5792 5812 5795 5788 5785 5791 5804 5800 5797 5793 5794 5794 5799 5804 5804 5800 5795 5786 5782 5779 5776 5774 5774 5773 5769 5764 5762 5762 5761 5758 5757 5757 5759 5762 5763
5774 5755 5785 5792 5791 5782 5778 5769 5777 5805 5816 5798 5789 5783 5799 5802 5802 5801 5801 5800 5804 5799 5801 5800 5797 5794 5790 5784 5781 5775 5772 5770 5772 5772 5770 5766 5764 5761 5761 5760 5759 5761 5763 5767
5760 5784 5801 5790 5789 5782 5782 5774 5789 5788 5809 5805 5794 5778 5783 5798 5798 5801 5807 5815 5811 5812 5806 5801 5800 5795 5791 5784 5783 5779 5774 5772 5772 5773 5770 5767 5764 5760 5757 5756 5757 5761 5762 5764
5771 5801 5792 5790 5781 5787 5757 5803 5802 5799 5781 5754 5796 5739 5773 5787 5795 5800 5805 5805 5810 5810 5814 5810 5803 5797 5793 5789 5786 5782 5777 5774 5772 5770 5768 5766 5762 5756 5756 5757 5758 5758 5759 5760
5775 5790 5785 5782 5790 5801 5786 5811 5802 5804 5780 5776 5775 5751 5777 5791 5785 5798 5810 5809 5814 5818 5813 5813 5811 5806 5799 5793 5786 5783 5779 5776 5774 5771 5768 5764 5761 5759 5758 5757 5755 5755 5758 5761
5790 5811 5802 5797 5811 5813 5818 5805 5786 5775 5759 5733 5765 5760 5765 5773 5802 5811 5821 5820 5824 5822 5818 5817 5817 5810 5800 5795 5789 5784 5780 5776 5774 5771 5769 5765 5762 5759 5755 5756 5756 5757 5760 5762
5786 5793 5812 5814 5794 5809 5805 5760 5722 5726 5721 5724 5773 5757 5776 5809 5822 5824 5825 5828 5832 5833 5820 5816 5808 5807 5801 5796 5790 5786 5781 5777 5775 5773 5771 5769 5766 5763 5761 5760 5760 5758 5760 5762
5752 5763 5803 5819 5802 5792 5788 5765 5722 5713 5710 5734 5767 5753 5790 5829 5846 5840 5839 5842 5837 5831 5828 5822 5815 5813 5806 5800 5795 5792 5784 5780 5777 5775 5773 5773 5772 5769 5767 5768 5767 5765 5765 5767
5746 5763 5819 5821 5824 5812 5791 5767 5779 5747 5743 5726 5751 5777 5809 5835 5835 5831 5833 5836 5833 5832 5831 5826 5820 5818 5812 5805 5799 5796 5788 5784 5779 5777 5775 5773 5773 5771 5771 5771 5772 5769 5770 5770
5782 5755 5807 5817 5825 5818 5801 5805 5763 5736 5729 5721 5737 5752 5761 5811 5826 5829 5828 5829 5831 5833 5830 5826 5821 5819 5817 5811 5803 5797 5793 5790 5786 5780 5776 5775 5774 5773 5773 5773 5771 5770 5771 5770
5791 5772 5792 5800 5792 5787 5786 5778 5777 5759 5738 5720 5715 5741 5797 5809 5825 5828 5830 5835 5838 5839 5835 5831 5827 5826 5821 5812 5804 5799 5793 5790 5784 5782 5779 5776 5773 5773 5773 5774 5774 5774 5774 5771
5785 5761 5748 5775 5808 5816 5802 5787 5764 5731 5735 5728 5724 5741 5808 5808 5819 5821 5838 5838 5837 5841 5842 5838 5831 5824 5818 5813 5806 5803 5796 5793 5789 5785 5781 5779 5776 5774 5772 5774 5775 5776 5774 5773
5771 5752 5728 5749 5779 5798 5782 5787 5782 5759 5740 5732 5713 5739 5800 5807 5813 5823 5811 5833 5836 5835 5835 5831 5827 5824 5819 5813 5809 5803 5800 5798 5793 5787 5782 5779 5777 5775 5774 5773 5776 5776 5776 5774
5764 5741 5735 5715 5741 5761 5759 5772 5780 5760 5732 5735 5741 5761 5785 5793 5797 5803 5805 5816 5815 5819 5823 5829 5829 5829 5823 5817 5811 5804 5799 5797 5793 5789 5784 5780 5781 5780 5777 5777 5776 5776 5776 5775
5739 5715 5724 5732 5742 5750 5751 5755 5766 5756 5753 5733 5753 5752 5773 5788 5795 5803 5803 5804 5808 5816 5818 5820 5817 5821 5821 5813 5809 5803 5797 5793 5792 5787 5783 5783 5784 5783 5780 5778 5779 5779 5776 5777
5721 5704 5711 5712 5734 5736 5735 5750 5761 5763 5758 5752 5748 5752 5769 5783 5789 5793 5797 5799 5800 5798 5816 5816 5815 5816 5817 5815 5808 5804 5797 5792 5789 5787 5785 5784 5783 5782 5779 5776 5777 5777 5776 5776
5698 5691 5686 5681 5712 5712 5707 5741 5741 5742 5743 5739 5726 5745 5769 5772 5770 5777 5788 5797 5803 5804 5802 5815 5822 5826 5825 5823 5819 5804 5797 5792 5787 5785 5783 5782 5780 5778 5777 5775 5774 5772 5773 5774
5688 5678 5667 5663 5685 5663 5711 5732 5734 5731 5724 5729 5735 5740 5747 5762 5772 5772 5779 5785 5802 5806 5808 5806 5812 5816 5815 5815 5811 5806 5802 5792 5787 5784 5780 5777 5776 5774 5771 5770 5772 5772 5774 5774
5683 5673 5661 5654 5647 5676 5695 5699 5700 5705 5697 5712 5722 5732 5741 5753 5765 5766 5768 5772 5787 5791 5799 5804 5792 5808 5810 5806 5801 5799 5799 5794 5789 5785 5786 5783 5777 5769 5766 5765 5767 5770 5769 5772
5674 5670 5656 5645 5646 5646 5664 5687 5703 5708 5664 5694 5703 5702 5709 5730 5723 5735 5758 5764 5777 5783 5782 5780 5771 5783 5806 5806 5805 5799 5796 5792 5787 5786 5785 5781 5778 5774 5765 5763 5762 5764 5768 5767
5639 5642 5638 5635 5637 5648 5666 5683 5697 5667 5651 5678 5685 5688 5687 5691 5702 5717 5739 5756 5772 5775 5783 5777 5769 5764 5781 5794 5804 5801 5798 5803 5795 5785 5785 5780 5777 5771 5770 5764 5759 5758 5761 5762
5622 5618 5615 5617 5622 5627 5656 5666 5648 5651 5664 5671 5675 5677 5680 5683 5693 5698 5713 5732 5749 5753 5761 5765 5765 5767 5775 5782 5785 5796 5800 5802 5799 5783 5782 5776 5770 5769 5762 5759 5756 5753 5752 5750
5609 5612 5605 5613 5614 5631 5637 5637 5641 5647 5651 5656 5663 5671 5674 5676 5688 5690 5699 5708 5726 5740 5748 5755 5754 5760 5767 5772 5776 5780 5791 5796 5790 5779 5772 5769 5770 5762 5756 5755 5753 5747 5743 5742
5608 5610 5598 5603 5622 5624 5629 5635 5639 5639 5639 5645 5654 5661 5663 5663 5670 5681 5688 5702 5714 5724 5730 5738 5741 5744 5753 5760 5763 5772 5784 5787 5785 5777 5770 5763 5764 5759 5755 5754 5750 5745 5741 5739
5604 5608 5608 5608 5617 5623 5629 5625 5623 5628 5631 5635 5642 5644 5649 5656 5663 5668 5674 5684 5696 5708 5722 5728 5728 5732 5742 5746 5748 5756 5767 5775 5777 5777 5768 5760 5756 5749 5742 5738 5736 5739 5737 5741
5609 5604 5602 5598 5604 5596 5610 5617 5615 5611 5618 5621 5622 5629 5634 5642 5652 5658 5667 5678 5683 5688 5698 5709 5718 5729 5742 5733 5727 5732 5751 5761 5772 5765 5758 5756 5752 5739 5733 5731 5728 5726 5726 5727